Spirit of St Louis, MO

6:46 PM CST on December 05, 2019 (GMT -0600)
Spirit Of Saint Louis

Weather History for KSUS - October, 2019

Change the Weather History Date:

Monday, October 21, 2019

  Actual Average Record
Temperature  
Mean Temperature 60 °F -  
Max Temperature 66 °F 65 °F 86 °F (2015)
Min Temperature 54 °F 41 °F 27 °F (1997)
Degree Days  
Heating Degree Days 5    
Growing Degree Days 10 (Base 50)    
Moisture  
Dew Point 52 °F    
Average Humidity 71    
Maximum Humidity 94    
Minimum Humidity 42    
Precipitation  
Precipitation 0.21 in - - ()
Sea Level Pressure  
Sea Level Pressure 29.56 in    
Wind  
Wind Speed 11 mph (SW)    
Max Wind Speed 23 mph    
Max Gust Speed 33 mph    
Visibility 9 miles    
Events Rain , Thunderstorm    
Averages and records for this station are not official NWS values.
T = Trace of Precipitation, MM = Missing Value Source: NWS Daily Summary

Daily Weather History Graph

Daily Weather History Graph

Search for Another Location

Airport or City:

Astronomy

Oct. 21, 2019 Rise Set
Actual Time 7:17 AM CDT 6:16 PM CDT
Civil Twilight 6:50 AM CDT 6:43 PM CDT
Nautical Twilight 6:19 AM CDT 7:14 PM CDT
Astronomical Twilight 5:48 AM CDT 7:44 PM CDT
Moon No Moon Rise 2:33 PM CDT (10/21)
Length of Visible Light 11h 52m
Length of Day
10h 58m
Waning Gibbous, 48% of the Moon is Illuminated
Oct 21
Waning Gibbous
Oct 27
New
Nov 4
First Quarter
Nov 12
Full
Nov 19
Last Quarter

Hourly Weather History & Observations

Time (CDT) Temp. Dew Point Humidity Pressure Visibility Wind Dir Wind Speed Gust Speed Precip Events Conditions
12:54 AM 61.0 °F 54.0 °F 78% 29.65 in 10.0 mi Variable 5.8 mph - N/A   Clear
1:54 AM 62.1 °F 55.0 °F 78% 29.60 in 10.0 mi East 6.9 mph - N/A   Clear
2:54 AM 63.0 °F 57.0 °F 81% 29.54 in 10.0 mi East 8.1 mph 19.6 mph N/A   Mostly Cloudy
3:24 AM 63.0 °F 57.9 °F 84% 29.52 in 9.0 mi ESE 10.4 mph 19.6 mph 0.00 in Rain , Thunderstorm Light Rain
3:54 AM 63.0 °F 60.1 °F 90% 29.47 in 10.0 mi ESE 10.4 mph 18.4 mph 0.01 in Rain Light Rain
4:05 AM 63.0 °F 60.1 °F 90% 29.47 in 7.0 mi ESE 9.2 mph 23.0 mph 0.01 in Rain , Thunderstorm Light Rain
4:20 AM 64.0 °F 61.0 °F 90% 29.49 in 4.0 mi SE 11.5 mph 20.7 mph 0.05 in Rain Rain
4:52 AM 64.4 °F 62.6 °F 94% 29.50 in 2.5 mi West 23.0 mph 31.1 mph 0.18 in Rain Rain
4:54 AM 64.9 °F 62.1 °F 90% 29.47 in 1.8 mi WNW 17.3 mph 31.1 mph 0.19 in Rain Heavy Rain
5:01 AM 64.0 °F 62.1 °F 93% 29.44 in 2.0 mi NNW 10.4 mph 31.1 mph 0.01 in Rain Light Rain
5:08 AM 64.0 °F 61.0 °F 90% 29.42 in 10.0 mi North 4.6 mph 17.3 mph 0.01 in Rain Light Rain
5:54 AM 63.0 °F 60.1 °F 90% 29.44 in 10.0 mi SSW 10.4 mph 20.7 mph 0.01 in   Overcast
6:54 AM 63.0 °F 60.1 °F 90% 29.46 in 10.0 mi SSW 9.2 mph - N/A   Overcast
7:54 AM 63.0 °F 59.0 °F 87% 29.48 in 10.0 mi SSW 8.1 mph - N/A   Overcast
8:54 AM 63.0 °F 57.9 °F 84% 29.50 in 10.0 mi SSW 8.1 mph 19.6 mph N/A   Overcast
9:54 AM 63.0 °F 57.9 °F 84% 29.52 in 10.0 mi SSW 11.5 mph 20.7 mph 0.00 in   Overcast
10:54 AM 63.0 °F 53.1 °F 70% 29.54 in 10.0 mi West 17.3 mph 31.1 mph N/A   Mostly Cloudy
11:54 AM 64.0 °F 51.1 °F 63% 29.56 in 10.0 mi West 17.3 mph 28.8 mph N/A   Mostly Cloudy
12:54 PM 64.0 °F 45.0 °F 50% 29.56 in 10.0 mi WSW 21.9 mph 29.9 mph N/A   Scattered Clouds
1:54 PM 64.9 °F 42.1 °F 43% 29.55 in 10.0 mi WSW 18.4 mph 33.4 mph N/A   Partly Cloudy
2:54 PM 64.9 °F 41.0 °F 42% 29.57 in 10.0 mi WSW 20.7 mph 32.2 mph N/A   Partly Cloudy
3:54 PM 66.0 °F 42.1 °F 42% 29.59 in 10.0 mi WSW 16.1 mph 25.3 mph N/A   Clear
4:54 PM 64.0 °F 41.0 °F 43% 29.61 in 10.0 mi West 18.4 mph 27.6 mph N/A   Clear
5:54 PM 61.0 °F 42.1 °F 50% 29.65 in 10.0 mi West 11.5 mph - N/A   Scattered Clouds
6:54 PM 59.0 °F 41.0 °F 51% 29.68 in 10.0 mi SW 9.2 mph 21.9 mph N/A   Clear
7:54 PM 57.9 °F 41.0 °F 53% 29.69 in 10.0 mi SSW 10.4 mph - N/A   Clear
8:54 PM 57.9 °F 39.9 °F 51% 29.70 in 10.0 mi WSW 11.5 mph - N/A   Clear
9:54 PM 55.0 °F 41.0 °F 59% 29.73 in 10.0 mi WSW 8.1 mph - N/A   Partly Cloudy
10:54 PM 54.0 °F 41.0 °F 62% 29.74 in 10.0 mi WSW 9.2 mph - N/A   Clear
11:54 PM 55.0 °F 37.9 °F 53% 29.74 in 10.0 mi WSW 15.0 mph - N/A   Clear